Date String (YYYY-MM-DD hh:mm:ss) UTC,Instrument flags,absolute air pressure of the measurement (hPa),sample flow rate (lpm),inlet stack bypass flow (lpm),air temperature of the measurement (°C),ambient temperature measured by the external sensor (°C),aerosol sample conditioner tube jacket temperature (°C),OPC LED temperature (°C),internal box temperature (°C),relative humidity of the measurement (%),span deviation,mass concentration of particles derived from Lorenz-Mie calculation of OPC scattering (μg/m³),mass concentration of particles derived from Lorenz-Mie calculation of OPC scattering (μg/m³),mass concentration of particles derived from Lorenz-Mie calculation of OPC scattering (μg/m³)
DateTimeUTC,F1_M11,P_M11,Q1_M11,Q2_M11,T1_M11,T2_M11,T3_M11,T4_M11,T5_M11,U1_M11,ZSPAN_M11,X2_M11,X0_M11,X1_M11
2023-12-13 19:00:00,SystemResetWarning,0838.6,5.00,000.00,018.7,017.8,000.0,027.2,020.0,22.9,0001.2,0012.60,0015.88,0012.06
2023-12-13 19:01:00,SystemResetWarning,0838.6,5.01,000.00,018.8,017.8,000.0,027.1,020.0,23.0,0001.2,0012.57,0015.84,0012.05
2023-12-13 19:02:00,SystemResetWarning,0838.6,5.00,000.00,018.7,017.8,000.0,027.1,020.0,22.9,0000.8,0012.58,0015.80,0012.05
2023-12-13 19:03:00,SystemResetWarning,0838.6,4.99,000.00,018.7,017.8,000.0,027.1,020.0,22.8,0000.3,0012.59,0015.69,0012.04
2023-12-13 19:04:00,SystemResetWarning,0838.6,5.00,000.00,018.7,017.8,000.0,027.1,020.0,22.6,0000.6,0012.63,0015.90,0012.06
2023-12-13 19:05:00,SystemResetWarning,0838.6,4.99,000.00,018.7,017.8,000.0,027.1,020.0,22.5,0000.9,0012.69,0015.80,0012.11
2023-12-13 19:06:00,SystemResetWarning,0838.6,5.00,000.00,018.7,017.8,000.0,027.1,020.0,22.4,0000.9,0012.73,0016.17,0012.16
2023-12-13 19:07:00,SystemResetWarning,0838.5,5.01,000.00,018.7,017.8,000.0,027.1,020.0,22.4,0001.1,0012.80,0016.34,0012.23
2023-12-13 19:08:00,SystemResetWarning,0838.5,5.00,000.00,018.7,017.8,000.0,027.1,020.0,22.4,0001.3,0012.91,0016.55,0012.31
2023-12-13 19:09:00,SystemResetWarning,0838.5,4.99,000.00,018.7,017.8,000.0,027.1,020.0,22.5,0001.4,0012.94,0016.51,0012.35
2023-12-13 19:10:00,SystemResetWarning,0838.4,4.99,000.00,018.7,017.8,000.0,027.1,020.0,22.5,0001.6,0013.04,0016.63,0012.43
2023-12-13 19:11:00,SystemResetWarning,0838.4,4.99,000.00,018.7,017.8,000.0,027.1,020.0,22.5,0001.8,0013.12,0016.72,0012.52
2023-12-13 19:12:00,SystemResetWarning,0838.4,5.00,000.00,018.7,017.8,000.0,027.1,020.0,22.5,0001.6,0013.19,0016.84,0012.57
2023-12-13 19:13:00,SystemResetWarning,0838.3,5.00,000.00,018.8,017.8,000.0,027.1,020.0,22.5,0001.6,0013.20,0016.86,0012.59
2023-12-13 19:14:00,SystemResetWarning,0838.3,5.00,000.00,018.8,017.8,000.0,027.1,020.0,22.5,0001.6,0013.21,0016.71,0012.61
2023-12-13 19:15:00,SystemResetWarning,0838.3,5.00,000.00,018.8,017.8,000.0,027.1,020.0,22.5,0001.7,0013.22,0016.38,0012.62
2023-12-13 19:16:00,SystemResetWarning,0838.3,5.00,000.00,018.8,017.8,000.0,027.1,020.0,22.5,0001.6,0013.22,0016.41,0012.59
2023-12-13 19:17:00,SystemResetWarning,0838.3,5.00,000.00,018.7,017.8,000.0,027.1,020.0,22.6,0001.5,0013.20,0016.12,0012.56
2023-12-13 19:18:00,SystemResetWarning,0838.3,5.01,000.00,018.7,017.8,000.0,027.1,020.0,22.8,0001.5,0013.10,0015.93,0012.48
2023-12-13 19:19:00,SystemResetWarning,0838.3,5.00,000.00,018.7,017.8,000.0,027.1,020.0,23.0,0001.6,0012.98,0015.74,0012.40
2023-12-13 19:20:00,SystemResetWarning,0838.3,5.00,000.00,018.7,017.8,000.0,027.1,020.0,23.0,0001.6,0012.95,0015.75,0012.35
2023-12-13 19:21:00,SystemResetWarning,0838.3,5.00,000.00,018.7,017.8,000.0,027.1,020.0,22.8,0001.4,0012.90,0015.74,0012.30
2023-12-13 19:22:00,SystemResetWarning,0838.2,5.00,000.00,018.7,017.8,000.0,027.1,020.0,22.9,0001.3,0012.86,0016.24,0012.25
2023-12-13 19:23:00,SystemResetWarning,0838.2,5.00,000.00,018.7,017.8,000.0,027.1,020.0,22.9,0001.5,0012.86,0016.40,0012.22
2023-12-13 19:24:00,SystemResetWarning,0838.3,5.00,000.00,018.8,017.8,000.0,027.1,020.0,22.8,0001.5,0012.84,0016.50,0012.21
2023-12-13 19:25:00,SystemResetWarning,0838.2,5.01,000.00,018.8,017.8,000.0,027.1,020.0,22.8,0001.4,0012.84,0016.71,0012.21
2023-12-13 19:26:00,SystemResetWarning,0838.2,5.00,000.00,018.8,017.8,000.0,027.1,020.0,22.7,0001.3,0012.86,0016.66,0012.21
2023-12-13 19:27:00,SystemResetWarning,0838.2,5.00,000.00,018.8,017.8,000.0,027.1,020.0,22.8,0000.9,0012.82,0016.50,0012.21
2023-12-13 19:28:00,SystemResetWarning,0838.2,5.00,000.00,018.8,017.8,000.0,027.1,020.0,22.7,0001.0,0012.81,0016.46,0012.22
2023-12-13 19:29:00,SystemResetWarning,0838.2,5.00,000.00,018.8,017.8,000.0,027.1,020.0,22.6,0000.6,0012.84,0016.50,0012.23
2023-12-13 19:30:00,SystemResetWarning,0838.2,4.99,000.00,018.8,017.8,000.0,027.1,020.0,22.6,0000.4,0012.92,0016.59,0012.28
2023-12-13 19:31:00,SystemResetWarning,0838.2,4.99,000.00,018.8,017.8,000.0,027.1,020.0,22.6,0000.4,0012.94,0016.75,0012.33
2023-12-13 19:32:00,SystemResetWarning,0838.2,5.01,000.00,018.8,017.8,000.0,027.1,020.0,22.7,0000.4,0012.99,0017.24,0012.37
2023-12-13 19:33:00,SystemResetWarning,0838.2,5.01,000.00,018.8,017.8,000.0,027.1,020.0,22.7,0000.6,0013.03,0016.82,0012.39
2023-12-13 19:34:00,SystemResetWarning,0838.2,5.00,000.00,018.8,017.8,000.0,027.1,020.0,22.6,0000.3,0013.01,0017.25,0012.39
2023-12-13 19:35:00,SystemResetWarning,0838.1,5.00,000.00,018.8,017.8,000.0,027.1,020.0,22.6,0000.3,0013.04,0017.67,0012.42
2023-12-13 19:36:00,SystemResetWarning,0838.1,4.99,000.00,018.8,017.8,000.0,027.1,020.0,22.7,0000.7,0013.08,0017.86,0012.46
2023-12-13 19:37:00,SystemResetWarning,0838.1,5.00,000.00,018.8,017.8,000.0,027.1,020.0,22.7,0000.9,0013.09,0017.73,0012.52
2023-12-13 19:38:00,SystemResetWarning,0838.1,5.01,000.00,018.8,017.8,000.0,027.1,020.0,22.6,0001.3,0013.19,0017.90,0012.60
2023-12-13 19:39:00,SystemResetWarning,0838.1,5.00,000.00,018.8,017.8,000.0,027.1,020.0,22.7,0001.6,0013.27,0018.01,0012.66
2023-12-13 19:40:00,SystemResetWarning,0838.1,5.00,000.00,018.8,017.8,000.0,027.1,020.0,22.8,0001.7,0013.35,0018.13,0012.74
2023-12-13 19:41:00,SystemResetWarning,0838.0,5.00,000.00,018.8,017.8,000.0,027.1,020.0,22.7,0001.8,0013.37,0018.12,0012.79
2023-12-13 19:42:00,SystemResetWarning,0838.0,5.00,000.00,018.8,017.8,000.0,027.1,020.0,22.6,0001.7,0013.44,0018.22,0012.86
2023-12-13 19:43:00,SystemResetWarning,0838.0,5.00,000.00,018.8,017.8,000.0,027.1,020.0,22.5,0001.7,0013.49,0017.92,0012.94
2023-12-13 19:44:00,SystemResetWarning,0838.0,4.99,000.00,018.8,017.8,000.0,027.1,020.0,22.4,0001.5,0013.55,0018.14,0013.02
2023-12-13 19:45:00,SystemResetWarning,0837.9,5.00,000.00,018.8,017.8,000.0,027.1,020.0,22.3,0001.7,0013.63,0017.60,0013.12
2023-12-13 19:46:00,SystemResetWarning,0837.8,5.01,000.00,018.8,017.8,000.0,027.1,020.0,22.3,0001.8,0013.73,0017.15,0013.20
2023-12-13 19:47:00,SystemResetWarning,0837.8,5.00,000.00,018.8,017.8,000.0,027.1,020.0,22.4,0001.7,0013.81,0017.03,0013.26
2023-12-13 19:48:00,SystemResetWarning,0837.8,5.00,000.00,018.8,017.8,000.0,027.1,020.0,22.5,0001.5,0013.88,0017.19,0013.29
2023-12-13 19:49:00,SystemResetWarning,0837.8,5.00,000.00,018.8,017.9,000.0,027.1,020.0,22.5,0001.2,0013.92,0017.28,0013.30
2023-12-13 19:50:00,SystemResetWarning,0837.8,5.00,000.00,018.8,017.9,000.0,027.1,020.0,22.7,0001.0,0013.94,0017.36,0013.31
2023-12-13 19:51:00,SystemResetWarning,0837.8,5.00,000.00,018.8,017.9,000.0,027.1,020.0,22.8,0000.9,0013.96,0017.37,0013.34
2023-12-13 19:52:00,SystemResetWarning,0837.8,5.00,000.00,018.8,017.9,000.0,027.1,020.0,22.8,0000.8,0013.97,0017.40,0013.34
2023-12-13 19:53:00,SystemResetWarning,0837.8,5.00,000.00,018.8,017.9,000.0,027.1,020.0,22.8,0000.8,0013.94,0017.19,0013.32
2023-12-13 19:54:00,SystemResetWarning,0837.7,5.00,000.00,018.8,017.9,000.0,027.1,020.0,22.7,0000.6,0013.90,0016.94,0013.28
2023-12-13 19:55:00,SystemResetWarning,0837.7,5.00,000.00,018.8,017.9,000.0,027.1,020.0,22.6,0000.5,0013.91,0016.95,0013.27
2023-12-13 19:56:00,SystemResetWarning,0837.7,5.01,000.00,018.8,017.8,000.0,027.1,020.0,22.7,0000.5,0013.92,0017.12,0013.27
2023-12-13 19:57:00,SystemResetWarning,0837.7,5.00,000.00,018.8,017.9,000.0,027.1,020.0,22.5,0000.7,0013.94,0017.74,0013.28
2023-12-13 19:58:00,SystemResetWarning,0837.7,5.00,000.00,018.8,017.9,000.0,027.1,020.0,22.5,0001.0,0013.92,0017.91,0013.28
2023-12-13 19:59:00,SystemResetWarning,0837.7,5.00,000.00,018.8,017.9,000.0,027.1,020.0,22.5,0001.0,0013.91,0017.89,0013.29
